EW2517 Weather Reports


time (UTC)temp
C
wind
direction
speed
KPH
gust
KPH
rain 1hr
cm
rain 24hr
cm
rain mn
cm
humidity
%
barometer
mb
20260507070013 10 360 0.0 3.2 0.00 0.48 0.13 89 1006.5
20260507064511 10 360 0.0 3.2 0.00 0.48 0.13 89 1006.4
20260507063059 10 360 0.0 1.6 0.00 0.48 0.13 89 1006.3
20260507061557 10 360 0.0 4.8 0.00 0.48 0.13 88 1006.2
20260507060101 11 360 0.0 0.0 0.00 0.48 0.13 88 1006.4
20260507054612 11 360 0.0 3.2 0.00 0.48 0.13 88 1006.8
20260507053105 11 360 0.0 3.2 0.00 0.48 0.13 89 1006.9
20260507051557 11 360 0.0 3.2 0.00 0.48 0.13 88 1006.7
20260507050055 11 360 1.6 3.2 0.00 0.48 0.13 88 1006.8
20260507044554 11 360 0.0 4.8 0.00 0.48 0.13 89 1006.3
20260507043046 12 360 0.0 3.2 0.00 0.48 0.13 90 1006.7
20260507041526 12 360 0.0 4.8 0.00 0.48 0.13 90 1006.8
20260507040023 12 360 0.0 4.8 0.00 0.48 0.13 90 1006.7
20260507034508 13 360 0.0 0.0 0.00 0.48 0.13 91 1006.3
20260507033005 13 360 0.0 1.6 0.00 0.48 0.13 91 1005.9
20260507031502 13 360 0.0 1.6 0.00 0.48 0.13 91 1005.8
20260507030104 14 360 0.0 4.8 0.00 0.48 0.13 92 1005.6
20260507024556 15 360 0.0 1.6 0.00 0.48 0.13 92 1005.5
20260507023052 15 360 0.0 4.8 0.00 0.48 0.13 92 1005.5
20260507021601 15 360 3.2 8.0 0.00 0.48 0.13 92 1005.2
20260507020107 15 360 0.0 6.4 0.00 0.48 0.13 92 1004.8
20260507014542 15 360 0.0 3.2 0.00 0.48 0.13 92 1005.0
20260507013043 15 360 0.0 6.4 0.00 0.48 0.13 92 1004.9
20260507011541 15 360 0.0 6.4 0.00 0.48 0.13 92 1005.0
20260507010041 15 360 0.0 4.8 0.00 0.48 0.13 92 1004.9
20260507004530 15 360 1.6 8.0 0.00 0.48 0.13 92 1005.0
20260507003028 15 360 0.0 8.0 0.00 0.48 0.13 92 1004.8
20260507001535 15 360 1.6 4.8 0.03 0.48 0.13 92 1004.8
20260507000026 15 360 1.6 4.8 0.05 0.48 0.13 92 1004.8
20260506234504 15 360 0.0 6.4 0.08 0.48 0.13 92 1004.6
20260506233100 15 360 0.0 6.4 0.10 0.48 0.13 92 1004.5
20260506231547 15 360 0.0 12.9 0.08 0.46 0.10 92 1004.5
20260506230052 15 360 0.0 6.4 0.08 0.43 0.08 92 1004.7
20260506224547 15 360 1.6 8.0 0.05 0.41 0.05 92 1004.8
20260506223042 15 360 1.6 9.7 0.05 0.38 0.03 91 1004.7
20260506221551 15 360 3.2 9.7 0.08 0.38 0.03 92 1004.8
20260506220043 15 360 0.0 8.0 0.08 0.36 0.00 91 1004.9
20260506214535 15 360 1.6 9.7 0.10 0.36 0.36 91 1005.0
20260506213042 15 360 3.2 9.7 0.15 0.33 0.33 91 1004.9
20260506211537 15 360 3.2 14.5 0.15 0.30 0.30 91 1005.1
20260506210033 16 360 3.2 9.7 0.15 0.28 0.28 91 1005.3
20260506204523 16 360 1.6 22.5 0.13 0.25 0.25 90 1005.5
20260506203020 16 360 1.6 9.7 0.05 0.18 0.18 90 1005.5
20260506201523 16 360 1.6 9.7 0.03 0.15 0.15 89 1005.6
20260506200019 16 360 3.2 12.9 0.03 0.13 0.13 88 1005.6
20260506194519 17 360 3.2 9.7 0.05 0.13 0.13 88 1005.8
20260506193032 17 360 0.0 8.0 0.08 0.13 0.13 89 1005.6
20260506191501 17 360 0.0 3.2 0.10 0.13 0.13 89 1005.7
20260506190000 17 360 0.0 6.4 0.10 0.10 0.10 88 1005.8
20260506184547 17 360 1.6 6.4 0.08 0.08 0.08 87 1006.0
20260506183046 18 360 1.6 9.7 0.05 0.05 0.05 84 1006.2
20260506181600 18 360 3.2 8.0 0.00 0.00 0.00 79 1006.5
20260506180045 20 360 1.6 8.0 0.00 0.00 0.00 70 1006.2
20260506174543 21 53 1.6 14.5 0.00 0.00 0.00 64 1006.1
20260506173111 22 97 4.8 16.1 0.00 0.00 0.00 58 1006.0
20260506171643 22 297 4.8 17.7 0.00 0.00 0.00 56 1005.9
20260506170056 22 292 9.7 19.3 0.00 0.00 0.00 57 1006.1
20260506164524 22 306 3.2 17.7 0.00 0.00 0.00 59 1006.4
20260506163028 21 49 4.8 14.5 0.00 0.00 0.00 61 1006.6
20260506161505 21 257 3.2 16.1 0.00 0.00 0.00 62 1006.7
20260506160005 21 82 3.2 11.3 0.00 0.00 0.00 65 1007.2
20260506154605 20 55 4.8 19.3 0.00 0.00 0.00 65 1007.5
20260506153046 20 49 3.2 14.5 0.00 0.00 0.00 65 1007.7
20260506151535 20 53 4.8 20.9 0.00 0.00 0.00 65 1008.0
20260506150036 21 277 4.8 16.1 0.00 0.00 0.00 65 1007.9
20260506144542 20 76 4.8 20.9 0.00 0.00 0.00 66 1008.1
20260506143034 20 31 6.4 17.7 0.00 0.00 0.00 67 1007.9
20260506141532 20 292 4.8 17.7 0.00 0.00 0.00 68 1008.0
20260506140035 20 304 4.8 12.9 0.00 0.00 0.00 71 1007.7
20260506134531 19 13 3.2 9.7 0.00 0.00 0.00 72 1007.9
20260506133038 18 279 3.2 16.1 0.00 0.00 0.00 72 1008.1
20260506131511 18 297 3.2 17.7 0.00 0.00 0.00 73 1008.4
20260506130011 18 5 1.6 19.3 0.00 0.00 0.00 74 1008.4
20260506124559 18 285 3.2 14.5 0.00 0.00 0.00 74 1008.5
20260506123056 17 258 1.6 6.4 0.00 0.00 0.00 76 1008.2
20260506121552 17 5 4.8 14.5 0.00 0.00 0.00 76 1008.3
20260506120051 17 33 1.6 8.0 0.00 0.00 0.00 78 1008.6
20260506114551 16 150 4.8 12.9 0.00 0.00 0.00 78 1008.7
20260506113044 16 91 4.8 11.3 0.00 0.00 0.00 79 1008.8
20260506111543 16 130 3.2 9.7 0.00 0.00 0.00 79 1008.9
20260506110045 15 115 3.2 11.3 0.00 0.00 0.00 80 1008.8
20260506104554 15 5 1.6 8.0 0.00 0.00 0.00 81 1008.9
20260506103028 15 307 3.2 11.3 0.00 0.00 0.00 80 1008.9
20260506101529 15 71 1.6 8.0 0.00 0.00 0.00 80 1008.7
20260506100029 15 302 1.6 14.5 0.00 0.00 0.00 79 1008.8
20260506094532 15 331 3.2 12.9 0.00 0.00 0.00 80 1008.7
20260506093023 15 306 0.0 6.4 0.00 0.00 0.00 79 1008.5
20260506091521 15 305 1.6 11.3 0.00 0.00 0.00 78 1008.8
20260506090019 16 284 3.2 9.7 0.00 0.00 0.00 77 1008.7
20260506084507 16 80 3.2 11.3 0.00 0.00 0.00 77 1008.7
20260506083008 16 300 1.6 12.9 0.00 0.00 0.00 76 1008.7
20260506081506 16 49 4.8 11.3 0.00 0.00 0.00 75 1008.6
20260506073058 16 83 1.6 6.4 0.00 0.00 0.00 72 1008.5
20260506071619 16 73 4.8 14.5 0.00 0.00 0.00 71 1008.3